User: anonymous   Login
Location: Newark
(51.3318°N, 0.0053°E)
Time: 00:24:39
(UTC+00:00)
Language:

CUTE-I - Orbit

View from above orbital plane
View from above orbital plane
View from above satellite
View from above satellite

Ground track
Ground track

The orbit data is extracted from the following two-line orbital elements,

1 27844U 03031E   22179.54035014  .00000144  00000-0  84258-4 0  9995
2 27844  98.6777 187.0590 0011100  72.4269 287.8121 14.22459613985440
Epoch (UTC): 28 June 2022 12:58:06
Eccentricity: 0.0011100
inclination: 98.6777°
perigee height: 809 km
apogee height: 825 km
right ascension of ascending node: 187.0590°
argument of perigee: 72.4269°
revolutions per day: 14.22459613
mean anomaly at epoch: 287.8121°
orbit number at epoch: 98544

The dashed part of the orbit path shows where the satellite is in the earth's shadow,  

DLR